Location: USNO
(38.9242°N, 77.0663°W)
Time: 17:31:56
(UTC-04:00)

Tiangong 2 - Pass Details

Date: 09 October 2017
Orbit: 388 x 391 km, 42.8° (Epoch: 21 October)

Event Time Altitude Azimuth Distance (km) Brightness Sun altitude
Exits shadow 04:56:09 16° 111° (ESE) 1,129 4.0 -27.0°
Drops below altitude 10° 04:57:12 10° 95° (E) 1,419 4.8 -26.9°
Sets 04:59:37 0° 78° (ENE) 2,278 6.3 -26.4°
